World > North America > United States > Ohio > Pekin

Hourly Pekin, OH Regional Weather

Feedback E-mail the Weather

Quick WX

Pekin, OH Weather Maps

°F °C°F °C
Pekin Weather Map
UTC Time: 8/9/2022, 01:13
Your Time:

Pekin, OH Regional Weather

Expires:202208090200;;705879
ASUS41 KCLE 090110
RWRCLE
OHIO REGIONAL WEATHER ROUNDUP
NATIONAL WEATHER SERVICE CLEVELAND, OH
900 PM EDT MON AUG 08 2022

NOTE: "FAIR" INDICATES FEW OR NO CLOUDS BELOW 12,000 FEET WITH NO
SIGNIFICANT WEATHER AND/OR OBSTRUCTIONS TO VISIBILITY.


OHZ009>014-019>023-028>033-038-089-090200-
   NORTHEAST OHIO
  
CITY           SKY/WX    TMP DP  RH WIND       PRES   REMARKS
CLE-HOPKINS    TSTM      75  72  90 SW7       29.91F                  
CLE-LAKEFRONT  LGT RAIN  77  73  87 SW10      29.90F                  
CUY CO. ARPT   LGT RAIN  73  72  94 SW13      29.92F                  
LORAIN-ELYRIA  LGT RAIN  76  72  87 S8        29.92R                  
ASHTABULA      LGT RAIN  74  71  91 W14       29.92R                  
AKRON-CANTON   PTCLDY    84  72  67 SW12      29.94S THUNDER          
WOOSTER        MOCLDY    79  73  82 SW7       29.96R                  
MANSFIELD      LGT RAIN  74  71  91 SE10      29.94F                  
YOUNGSTOWN     MOCLDY    82  72  71 SW7       29.93S                  
$$


SKY/WX - Weather  TMP - Temperature  DP - Dew Point  RH - Humidity
WIND - Wind Direction/Speed PRES - Barometric Pressure VSB - Visibility
WCI - Wind Chill Index E13G22 Wind - East Wind 13 mph/Gusts of 22 mph

Trending Headlines

Pekin Radar Loop



Pekin Quick Facts


National Two Day Weather Forecast


E-mail the Pekin Weather Forecast

Voice your opinion or tell us about page issues...